DJO weather

Daloa Airport
Haut-Sassandra, Côte d'Ivoire

Public forecast

Using degrees Celsius for public forecast. Weather courtesy of forecast.io.

METAR (pilot weather report)

Report is more than 6 hours old.

Retrieved 2017/12/31 03:00 UTC (1 year ago):

DIDL 310300Z ///// 6000 NSC 23/23 Q1013 NOSIG

TAF (pilot weather forecast)

Closest forecast is Yamoussoukro Airport, 66.4 nm (122.9 km) E. Retrieved 2019/04/22 06:00 UTC (2 hours ago):

TAF DIYO 220500Z 2206/2306 26006KT 8000 SCT012 PROB30 2215/2218 BKN012 FEW023CB